Lid_Strength_Index
1 2 2 6 11 12 13 12 11 11 9 8 6 7 9 8 10 13 2 0 -0 -0 -1 -1 -1 -1 -1 -0 -0 -0 -0 -0 -0 -0 -0 -1 -1 -1 -1 -2 -2 -2 -1 -1 -1 -1 -2 -2 -2
1 2 5 9 14 15 13 10 11 9 7 6 6 7 8 9 5 4 3 0 -0 -0 -0 -0 -1 -1 -1 -0 -0 0 -0 0 -0 -0 -1 -1 -1 -1 -1 -1 -1 -2 -1 -1 -1 -2 -2 -2 -2
1 2 8 11 14 15 13 11 9 7 6 7 8 6 7 8 5 4 1 0 0 0 -0 -0 -1 -1 -0 -0 0 0 -0 -0 0 0 -0 -1 -1 -1 -1 -1 -1 -1 -1 -1 -2 -2 -1 -2 -2
4 5 8 12 14 12 11 9 8 9 7 6 6 9 5 3 3 2 0 -0 1 -0 -0 -1 -1 -0 -0 -0 0 0 0 0 0 0 0 -0 -1 -1 -1 -1 -1 -1 -1 -1 -2 -1 -1 -2 -2
4 6 11 13 15 12 9 8 8 9 8 7 7 9 7 3 1 1 1 0 1 0 1 0 -1 0 0 0 0 0 0 0 0 0 0 -0 -0 -0 -1 -1 -1 -1 -1 -1 -1 -1 -1 -1 -1
7 7 13 14 14 10 9 7 7 8 7 7 8 8 7 2 2 1 0 0 0 1 1 1 1 1 1 1 1 1 1 1 1 1 1 1 1 0 -0 -1 -1 -1 -1 -1 -1 -1 -0 -0 -0
8 10 13 12 12 10 9 6 8 8 8 8 6 9 6 4 2 1 1 1 1 1 1 2 2 1 1 1 1 1 2 2 2 2 2 2 2 1 1 0 -1 -1 -1 -1 -0 -0 0 0 0
8 9 12 11 12 11 8 7 6 7 8 5 5 9 8 4 1 1 1 1 1 1 1 2 3 3 3 3 2 2 2 2 3 3 3 3 2 1 2 2 -0 -1 -1 -0 0 0 1 1 1
7 11 13 11 11 10 7 8 6 5 7 6 5 6 4 2 1 2 2 2 2 2 3 3 3 3 3 4 3 3 2 2 2 3 3 3 4 4 3 2 0 -0 -1 -0 0 1 2 2 2
8 12 12 12 12 9 7 7 7 8 8 8 7 4 3 3 3 3 3 4 4 4 4 4 4 4 4 3 4 4 4 4 4 4 4 4 5 5 4 4 1 1 1 1 1 2 3 4 7
8 11 10 11 10 8 8 8 7 8 10 7 8 6 4 4 4 3 3 4 5 5 6 5 4 4 5 5 5 5 5 5 5 5 5 5 5 5 5 5 3 3 3 3 3 5 7 8 9
10 9 10 10 9 7 8 7 8 8 8 6 5 4 4 5 4 4 4 4 4 6 6 5 5 5 5 5 5 5 5 5 5 5 5 6 6 6 6 6 4 3 3 4 6 8 10 10 10
10 11 10 10 9 7 7 8 8 9 7 4 4 4 5 4 4 4 3 3 4 6 6 6 5 5 5 6 6 6 6 6 6 6 6 6 7 7 6 6 6 4 4 5 6 8 9 11 11
10 11 10 9 10 9 9 9 8 8 6 5 5 5 5 4 4 4 3 3 4 5 6 6 5 5 5 5 6 6 7 6 6 6 6 6 6 7 7 7 6 5 4 5 6 8 10 11 12
10 12 11 11 10 11 9 11 11 8 6 6 6 5 5 4 4 4 3 3 3 4 5 6 5 5 5 5 5 6 6 6 6 6 6 6 6 6 7 7 7 6 5 5 7 8 10 12 12
11 11 14 12 11 11 11 14 10 8 7 7 7 6 5 5 4 4 3 3 2 3 4 5 5 5 4 4 5 5 6 6 5 5 6 6 6 6 7 7 7 6 5 5 9 10 11 12 13
12 16 14 13 10 11 12 14 12 11 9 8 7 7 6 5 5 3 3 3 3 3 4 5 5 5 4 4 5 6 6 6 6 6 6 5 6 6 7 7 6 6 5 6 8 9 11 12 13
16 15 13 13 11 10 12 13 12 11 11 11 10 8 7 6 5 4 3 3 3 2 3 4 5 5 4 5 5 6 6 5 5 6 5 4 5 6 6 7 6 6 6 6 6 8 10 11 12
11 13 14 12 10 11 13 14 13 12 13 13 12 11 11 10 10 8 6 5 5 3 3 2 3 4 5 6 6 6 6 6 6 6 5 6 6 6 6 7 7 7 7 7 6 7 10 11 12
12 13 14 13 11 12 14 14 13 12 13 13 12 12 12 11 10 9 9 9 8 6 5 3 2 3 4 4 4 5 6 6 6 6 7 7 7 7 6 6 7 7 7 7 7 9 10 11 12
13 14 14 14 13 13 14 15 15 14 13 13 13 12 12 11 11 10 9 9 9 9 8 6 5 4 3 4 4 4 4 5 6 7 7 7 7 7 7 7 7 7 5 6 6 8 9 10 12
15 11 12 14 14 18 14 20 17 16 15 14 13 13 12 11 11 10 10 10 10 9 9 8 7 7 6 5 4 5 5 6 5 6 6 5 6 6 7 7 7 6 6 5 5 6 7 8 10
14 11 12 13 15 16 16 18 18 16 17 16 14 13 12 12 11 11 10 10 9 9 10 9 9 8 8 7 6 6 5 5 4 4 4 4 5 6 7 7 7 7 6 6 6 6 7 7 7
11 13 14 13 16 20 18 20 20 18 16 16 14 13 12 12 12 12 11 10 10 10 10 10 9 9 8 7 7 7 7 6 6 5 5 4 5 6 7 7 7 7 7 7 6 5 5 6 6
13 16 20 21 22 21 19 20 18 16 15 14 14 14 13 13 13 13 12 11 10 11 10 9 9 9 8 8 7 7 7 7 7 7 6 6 6 5 5 6 6 6 6 6 5 5 5 5 5
15 16 19 23 22 21 19 21 18 15 14 13 13 14 14 14 13 12 12 12 11 11 10 10 10 10 9 9 9 8 8 8 8 8 7 6 6 5 4 5 6 6 5 5 6 6 5 5 5
16 17 15 19 21 21 21 19 16 15 15 14 14 14 14 14 13 12 11 11 11 12 11 11 11 11 11 11 10 10 9 8 7 7 7 6 6 5 5 5 6 6 5 6 6 6 6 5 5
14 14 19 19 23 23 22 21 19 17 16 15 14 14 13 12 12 11 12 12 12 13 12 12 11 11 10 10 10 10 10 9 9 8 8 8 7 6 6 5 5 5 5 5 6 6 6 6 6
15 16 16 16 18 21 22 21 16 14 14 14 13 13 13 13 12 11 10 11 12 13 13 13 13 13 12 12 11 11 10 10 9 9 8 8 7 7 6 6 5 5 5 5 6 6 6 6 6
15 15 15 19 20 19 20 20 15 13 12 13 13 12 12 11 10 10 10 11 13 13 13 13 13 13 12 12 11 11 11 11 11 10 10 9 9 8 8 7 7 6 6 5 5 6 6 6 7